Enid, OK

7:00 AM CDT on September 25, 2017 (GMT -0500)
Enid Woodring Municipal

Weather History for KWDG - December, 2012

Change the Weather History Date:

Thursday, December 13, 2012

  Actual Average Record
Temperature  
Mean Temperature 50 °F -  
Max Temperature 62 °F 47 °F 64 °F (1996)
Min Temperature 37 °F 29 °F 21 °F (1997)
Degree Days  
Heating Degree Days 16    
Moisture  
Dew Point 25 °F    
Average Humidity 50    
Maximum Humidity 65    
Minimum Humidity 26    
Precipitation  
Precipitation 0.00 in - - ()
Sea Level Pressure  
Sea Level Pressure 30.07 in    
Wind  
Wind Speed 15 mph (South)    
Max Wind Speed 24 mph    
Max Gust Speed 32 mph    
Visibility 10 miles    
Events      
Averages and records for this station are not official NWS values.
T = Trace of Precipitation, MM = Missing Value Source: NWS Daily Summary

Daily Weather History Graph

Daily Weather History Graph

Search for Another Location

Airport or City:

Trip Planner

Search our weather history database for the weather conditions in past years. The results will help you decide how hot, cold, wet, or windy it might be!

Date:

Astronomy

Dec. 13, 2012 Rise Set
Actual Time 7:34 AM CST 5:16 PM CST
Civil Twilight 7:05 AM CST 5:45 PM CST
Nautical Twilight 6:33 AM CST 6:17 PM CST
Astronomical Twilight 6:02 AM CST 6:49 PM CST
Moon 7:44 AM CST (12/13) 6:00 PM CST (12/13)
Length of Visible Light 10h 39m
Length of Day
9h 42m
New Moon, 0% of the Moon is Illuminated
Dec 13
New Moon
Dec 19
First Quarter
Dec 28
Full
Jan 4
Last Quarter
Jan 11
New

Hourly Weather History & Observations

Time (CST) Temp. Windchill Dew Point Humidity Pressure Visibility Wind Dir Wind Speed Gust Speed Precip Events Conditions
12:15 AM 41.0 °F 33.5 °F 21.2 °F 45% 30.09 in 10.0 mi South 13.8 mph - N/A   Clear
12:35 AM 41.0 °F 33.1 °F 21.2 °F 45% 30.09 in 10.0 mi South 15.0 mph - N/A   Clear
12:55 AM 39.2 °F 30.8 °F 21.2 °F 49% 30.10 in 10.0 mi South 15.0 mph - N/A   Clear
1:15 AM 37.4 °F 28.9 °F 23.0 °F 56% 30.09 in 10.0 mi South 13.8 mph - N/A   Clear
1:35 AM 39.2 °F 30.5 °F 23.0 °F 52% 30.09 in 10.0 mi South 16.1 mph - N/A   Clear
1:55 AM 37.4 °F 28.9 °F 23.0 °F 56% 30.09 in 10.0 mi South 13.8 mph - N/A   Clear
2:15 AM 39.2 °F 30.8 °F 23.0 °F 52% 30.09 in 10.0 mi South 15.0 mph - N/A   Clear
2:35 AM 39.2 °F 30.5 °F 23.0 °F 52% 30.09 in 10.0 mi South 16.1 mph - N/A   Clear
2:55 AM 37.4 °F 28.9 °F 23.0 °F 56% 30.09 in 10.0 mi South 13.8 mph - N/A   Clear
3:15 AM 37.4 °F 28.5 °F 23.0 °F 56% 30.09 in 10.0 mi South 15.0 mph - N/A   Clear
3:35 AM 39.2 °F 30.5 °F 23.0 °F 52% 30.08 in 10.0 mi South 16.1 mph - N/A   Clear
3:55 AM 37.4 °F 28.9 °F 23.0 °F 56% 30.08 in 10.0 mi South 13.8 mph - N/A   Clear
4:15 AM 37.4 °F 28.2 °F 23.0 °F 56% 30.07 in 10.0 mi South 16.1 mph - N/A   Clear
4:35 AM 37.4 °F 28.2 °F 23.0 °F 56% 30.07 in 10.0 mi South 16.1 mph - N/A   Clear
4:55 AM 41.0 °F 32.2 °F 23.0 °F 49% 30.06 in 10.0 mi South 18.4 mph - N/A   Clear
6:20 AM 39.2 °F 30.2 °F 23.0 °F 52% 30.08 in 10.0 mi South 17.3 mph 25.3 mph N/A   Clear
7:50 AM 37.4 °F 26.9 °F 23.0 °F 56% 30.08 in 10.0 mi South 20.7 mph 27.6 mph N/A   Clear
8:50 AM 41.0 °F 31.6 °F 23.0 °F 49% 30.11 in 10.0 mi South 20.7 mph 27.6 mph N/A   Clear
9:55 AM 46.4 °F 38.5 °F 23.0 °F 40% 30.10 in 10.0 mi South 21.9 mph 32.2 mph N/A   Clear
10:50 AM 51.8 °F - 24.8 °F 35% 30.11 in 10.0 mi SSW 21.9 mph 32.2 mph N/A   Clear
11:50 AM 55.4 °F - 24.8 °F 31% 30.09 in 10.0 mi South 21.9 mph 31.1 mph N/A   Clear
12:50 PM 59.0 °F - 26.6 °F 29% 30.06 in 10.0 mi South 24.2 mph 32.2 mph N/A   Clear
1:50 PM 62.6 °F - 26.6 °F 26% 30.04 in 10.0 mi South 23.0 mph 31.1 mph N/A   Clear
2:55 PM 62.6 °F - 28.4 °F 27% 30.02 in 10.0 mi South 18.4 mph 25.3 mph N/A   Clear
3:59 PM 62.6 °F - 28.4 °F 27% 30.02 in 10.0 mi South 19.6 mph 26.5 mph N/A   Clear
7:50 PM 44.6 °F 38.8 °F 26.6 °F 49% 30.07 in 10.0 mi South 11.5 mph - N/A   Clear
8:15 PM 41.0 °F 33.9 °F 26.6 °F 57% 30.06 in 10.0 mi South 12.7 mph - N/A   Clear
8:35 PM 42.8 °F 38.0 °F 26.6 °F 53% 30.07 in 10.0 mi South 8.1 mph - N/A   Clear
8:50 PM 39.2 °F 33.0 °F 24.8 °F 56% 30.07 in 10.0 mi South 9.2 mph - N/A   Clear
8:55 PM 37.4 °F 30.8 °F 26.6 °F 65% 30.06 in 10.0 mi South 9.2 mph - N/A   Clear
9:15 PM 37.4 °F 30.3 °F 26.6 °F 65% 30.06 in 10.0 mi South 10.4 mph - N/A   Clear
9:35 PM 37.4 °F 30.8 °F 26.6 °F 65% 30.06 in 10.0 mi South 9.2 mph - N/A   Clear
9:55 PM 41.0 °F 35.8 °F 28.4 °F 61% 30.06 in 10.0 mi South 8.1 mph - N/A   Clear
10:15 PM 44.6 °F 38.8 °F 28.4 °F 53% 30.06 in 10.0 mi South 11.5 mph - N/A   Clear
10:35 PM 46.4 °F 40.7 °F 30.2 °F 53% 30.06 in 10.0 mi South 12.7 mph - N/A   Clear
10:55 PM 46.4 °F 41.5 °F 30.2 °F 53% 30.06 in 10.0 mi South 10.4 mph - N/A   Clear
11:15 PM 44.6 °F 38.8 °F 30.2 °F 57% 30.06 in 10.0 mi South 11.5 mph - N/A   Clear
11:35 PM 44.6 °F 39.7 °F 30.2 °F 57% 30.05 in 10.0 mi South 9.2 mph - N/A   Clear
11:55 PM 44.6 °F 39.7 °F 30.2 °F 57% 30.05 in 10.0 mi South 9.2 mph - N/A   Clear